"Sample Date","Sample Time","Sample Value","Units","Flow Rate","Sample Interval","Number Channels","Micron Size 0","Counts/Channel 0","Micron Size 1","Counts/Channel 1","Micron Size 2","Counts/Channel 2","Micron Size 3","Counts/Channel 3","Micron Size 4","Counts/Channel 4","Micron Size 5","Counts/Channel 5","Micron Size 6","Counts/Channel 6","Micron Size 7","Counts/Channel 7","Micron Size 8","Counts/Channel 8","Micron Size 9","Counts/Channel 9","Micron Size 10","Counts/Channel 10","Micron Size 11","Counts/Channel 11","Micron Size 12","Counts/Channel 12","Micron Size 13","Counts/Channel 13","Micron Size 14","Counts/Channel 14","Micron Size 15","Counts/Channel 15","Micron Size 16","Counts/Channel 16","Micron Size 17","Counts/Channel 17","Micron Size 18","Counts/Channel 18","Micron Size 19","Counts/Channel 19","Micron Size 20","Counts/Channel 20","Micron Size 21","Counts/Channel 21","Micron Size 22","Counts/Channel 22","Micron Size 23","Counts/Channel 23","Micron Size 24","Counts/Channel 24","Micron Size 25","Counts/Channel 25","Micron Size 26","Counts/Channel 26","Micron Size 27","Counts/Channel 27","Micron Size 28","Counts/Channel 28","Micron Size 29","Counts/Channel 29","Micron Size 30","Counts/Channel 30","Micron Size 31","Counts/Channel 31"
"04/07/08","17:00:04",16217.000,"cc",28178.588,6.00,6,0.100,7729.000,0.200,2646.000,0.300,2244.000,0.500,2600.000,1.000,998.000,5.000,0
"04/07/08","17:00:10",16768.000,"cc",28379.262,6.00,6,0.100,8069.000,0.200,2696.000,0.300,2360.000,0.500,2597.000,1.000,1046.000,5.000,0
"04/07/08","17:00:16",16797.000,"cc",28286.777,6.00,6,0.100,7991.000,0.200,2753.000,0.300,2264.000,0.500,2701.000,1.000,1088.000,5.000,0
"04/07/08","17:00:22",16836.000,"cc",28394.410,6.00,6,0.100,7910.000,0.200,2752.000,0.300,2313.000,0.500,2743.000,1.000,1118.000,5.000,0
"04/07/08","17:00:28",16603.000,"cc",28299.736,6.00,6,0.100,7857.000,0.200,2726.000,0.300,2200.000,0.500,2734.000,1.000,1086.000,5.000,0
"04/07/08","17:00:34",16736.000,"cc",28377.565,6.00,6,0.100,7885.000,0.200,2785.000,0.300,2271.000,0.500,2683.000,1.000,1112.000,5.000,0
"04/07/08","17:00:40",17113.000,"cc",28402.344,6.00,6,0.100,8268.000,0.200,2772.000,0.300,2294.000,0.500,2737.000,1.000,1041.000,5.000,1.000
"04/07/08","17:00:46",15168.000,"cc",28220.465,6.00,6,0.100,7372.000,0.200,2422.000,0.300,2055.000,0.500,2372.000,1.000,947.000,5.000,0
"04/07/08","17:00:52",16281.000,"cc",28188.270,6.00,6,0.100,7755.000,0.200,2661.000,0.300,2257.000,0.500,2586.000,1.000,1022.000,5.000,0
"04/07/08","17:00:58",16596.000,"cc",28311.895,6.00,6,0.100,7972.000,0.200,2692.000,0.300,2260.000,0.500,2652.000,1.000,1020.000,5.000,0
"04/07/08","17:01:04",16504.000,"cc",28360.719,6.00,6,0.100,7833.000,0.200,2739.000,0.300,2263.000,0.500,2677.000,1.000,992.000,5.000,0
"04/07/08","17:01:10",16954.000,"cc",28324.018,6.00,6,0.100,8052.000,0.200,2758.000,0.300,2353.000,0.500,2731.000,1.000,1059.000,5.000,1.000
"04/07/08","17:01:16",17131.000,"cc",28292.315,6.00,6,0.100,8008.000,0.200,2860.000,0.300,2330.000,0.500,2835.000,1.000,1098.000,5.000,0
"04/07/08","17:01:22",16933.000,"cc",28217.213,6.00,6,0.100,8023.000,0.200,2724.000,0.300,2317.000,0.500,2773.000,1.000,1096.000,5.000,0
"04/07/08","17:01:28",17495.000,"cc",28350.371,6.00,6,0.100,8274.000,0.200,2897.000,0.300,2406.000,0.500,2824.000,1.000,1094.000,5.000,0
"04/07/08","17:01:34",16932.000,"cc",28344.410,6.00,6,0.100,7967.000,0.200,2787.000,0.300,2368.000,0.500,2722.000,1.000,1088.000,5.000,0
"04/07/08","17:01:40",16668.000,"cc",28266.607,6.00,6,0.100,7939.000,0.200,2720.000,0.300,2258.000,0.500,2657.000,1.000,1094.000,5.000,0
"04/07/08","17:01:46",16673.000,"cc",28353.301,6.00,6,0.100,7884.000,0.200,2719.000,0.300,2299.000,0.500,2757.000,1.000,1014.000,5.000,0
"04/07/08","17:01:52",16764.000,"cc",28350.406,6.00,6,0.100,7889.000,0.200,2803.000,0.300,2322.000,0.500,2693.000,1.000,1057.000,5.000,0
"04/07/08","17:01:58",16862.000,"cc",28345.430,6.00,6,0.100,7991.000,0.200,2697.000,0.300,2363.000,0.500,2666.000,1.000,1145.000,5.000,0
"04/07/08","17:02:04",16934.000,"cc",28328.023,6.00,6,0.100,8089.000,0.200,2784.000,0.300,2276.000,0.500,2773.000,1.000,1011.000,5.000,1.000
"04/07/08","17:02:10",15862.000,"cc",28466.367,6.00,6,0.100,7566.000,0.200,2632.000,0.300,2131.000,0.500,2560.000,1.000,973.000,5.000,0
"04/07/08","17:02:16",15988.000,"cc",28269.756,6.00,6,0.100,7770.000,0.200,2587.000,0.300,2109.000,0.500,2490.000,1.000,1032.000,5.000,0
"04/07/08","17:02:22",16372.000,"cc",28192.162,6.00,6,0.100,7892.000,0.200,2679.000,0.300,2194.000,0.500,2618.000,1.000,989.000,5.000,0
"04/07/08","17:02:28",16808.000,"cc",28117.227,6.00,6,0.100,8050.000,0.200,2806.000,0.300,2250.000,0.500,2672.000,1.000,1030.000,5.000,0
"04/07/08","17:02:34",17307.000,"cc",28334.008,6.00,6,0.100,8185.000,0.200,2849.000,0.300,2422.000,0.500,2811.000,1.000,1040.000,5.000,0
"04/07/08","17:02:40",16567.000,"cc",28312.674,6.00,6,0.100,7867.000,0.200,2754.000,0.300,2310.000,0.500,2676.000,1.000,960.000,5.000,0
"04/07/08","17:02:46",16915.000,"cc",28564.252,6.00,6,0.100,7938.000,0.200,2745.000,0.300,2386.000,0.500,2811.000,1.000,1035.000,5.000,0
"04/07/08","17:02:52",16296.000,"cc",28378.643,6.00,6,0.100,7818.000,0.200,2652.000,0.300,2241.000,0.500,2624.000,1.000,961.000,5.000,0
"04/07/08","17:02:58",16333.000,"cc",28190.856,6.00,6,0.100,7791.000,0.200,2609.000,0.300,2176.000,0.500,2700.000,1.000,1057.000,5.000,0
"04/07/08","17:03:04",16494.000,"cc",28289.350,6.00,6,0.100,7991.000,0.200,2604.000,0.300,2289.000,0.500,2637.000,1.000,973.000,5.000,0
"04/07/08","17:03:10",16595.000,"cc",28360.953,6.00,6,0.100,8047.000,0.200,2689.000,0.300,2241.000,0.500,2586.000,1.000,1032.000,5.000,0
"04/07/08","17:03:16",16827.000,"cc",28312.725,6.00,6,0.100,7938.000,0.200,2719.000,0.300,2338.000,0.500,2770.000,1.000,1062.000,5.000,0
"04/07/08","17:03:22",16779.000,"cc",28267.662,6.00,6,0.100,7986.000,0.200,2718.000,0.300,2307.000,0.500,2717.000,1.000,1051.000,5.000,0
"04/07/08","17:03:28",16607.000,"cc",28370.242,6.00,6,0.100,7974.000,0.200,2716.000,0.300,2263.000,0.500,2609.000,1.000,1045.000,5.000,0
"04/07/08","17:03:34",16765.000,"cc",28289.832,6.00,6,0.100,8061.000,0.200,2776.000,0.300,2294.000,0.500,2595.000,1.000,1039.000,5.000,0
"04/07/08","17:03:40",16649.000,"cc",28372.283,6.00,6,0.100,7943.000,0.200,2666.000,0.300,2262.000,0.500,2767.000,1.000,1011.000,5.000,0
"04/07/08","17:03:46",16444.000,"cc",28328.871,6.00,6,0.100,8018.000,0.200,2648.000,0.300,2268.000,0.500,2524.000,1.000,985.000,5.000,1.000
"04/07/08","17:03:52",16435.000,"cc",28334.697,6.00,6,0.100,8027.000,0.200,2598.000,0.300,2212.000,0.500,2586.000,1.000,1012.000,5.000,0
"04/07/08","17:03:58",15822.000,"cc",28324.391,6.00,6,0.100,7749.000,0.200,2439.000,0.300,2181.000,0.500,2433.000,1.000,1020.000,5.000,0
"04/07/08","17:04:04",16323.000,"cc",28178.783,6.00,6,0.100,7961.000,0.200,2569.000,0.300,2280.000,0.500,2540.000,1.000,973.000,5.000,0
"04/07/08","17:04:10",16598.000,"cc",28268.639,6.00,6,0.100,7866.000,0.200,2694.000,0.300,2328.000,0.500,2703.000,1.000,1006.000,5.000,1.000
"04/07/08","17:04:16",16242.000,"cc",28474.678,6.00,6,0.100,7985.000,0.200,2585.000,0.300,2211.000,0.500,2471.000,1.000,990.000,5.000,0
"04/07/08","17:04:22",16600.000,"cc",28288.895,6.00,6,0.100,7986.000,0.200,2689.000,0.300,2311.000,0.500,2615.000,1.000,999.000,5.000,0
"04/07/08","17:04:28",16313.000,"cc",28504.981,6.00,6,0.100,8035.000,0.200,2610.000,0.300,2166.000,0.500,2540.000,1.000,962.000,5.000,0
"04/07/08","17:04:34",16812.000,"cc",28399.332,6.00,6,0.100,8181.000,0.200,2684.000,0.300,2241.000,0.500,2677.000,1.000,1029.000,5.000,0
"04/07/08","17:04:40",16482.000,"cc",28285.553,6.00,6,0.100,7937.000,0.200,2697.000,0.300,2267.000,0.500,2565.000,1.000,1016.000,5.000,0
"04/07/08","17:04:46",16723.000,"cc",28243.236,6.00,6,0.100,8153.000,0.200,2729.000,0.300,2208.000,0.500,2609.000,1.000,1024.000,5.000,0
"04/07/08","17:04:52",17058.000,"cc",28273.211,6.00,6,0.100,8324.000,0.200,2749.000,0.300,2326.000,0.500,2595.000,1.000,1064.000,5.000,0
"04/07/08","17:04:58",16746.000,"cc",28323.727,6.00,6,0.100,7964.000,0.200,2798.000,0.300,2313.000,0.500,2645.000,1.000,1026.000,5.000,0
"04/07/08","17:05:04",17147.000,"cc",28378.053,6.00,6,0.100,8315.000,0.200,2762.000,0.300,2361.000,0.500,2667.000,1.000,1042.000,5.000,0
"04/07/08","17:05:10",16841.000,"cc",28131.674,6.00,6,0.100,8000.000,0.200,2829.000,0.300,2299.000,0.500,2671.000,1.000,1042.000,5.000,0
"04/07/08","17:05:16",17654.000,"cc",28205.127,6.00,6,0.100,8463.000,0.200,2917.000,0.300,2422.000,0.500,2767.000,1.000,1085.000,5.000,0
"04/07/08","17:05:22",17960.000,"cc",28316.758,6.00,6,0.100,8627.000,0.200,2987.000,0.300,2410.000,0.500,2848.000,1.000,1088.000,5.000,0
"04/07/08","17:05:28",18166.000,"cc",28326.268,6.00,6,0.100,8768.000,0.200,2900.000,0.300,2508.000,0.500,2887.000,1.000,1103.000,5.000,0
"04/07/08","17:05:34",18582.000,"cc",28189.174,6.00,6,0.100,8785.000,0.200,3058.000,0.300,2656.000,0.500,3011.000,1.000,1072.000,5.000,0
"04/07/08","17:05:40",18017.000,"cc",28299.879,6.00,6,0.100,8655.000,0.200,3000.000,0.300,2456.000,0.500,2870.000,1.000,1036.000,5.000,0
"04/07/08","17:05:46",17394.000,"cc",28495.375,6.00,6,0.100,8230.000,0.200,2893.000,0.300,2374.000,0.500,2820.000,1.000,1077.000,5.000,0
"04/07/08","17:05:52",17318.000,"cc",28332.400,6.00,6,0.100,8273.000,0.200,2868.000,0.300,2430.000,0.500,2693.000,1.000,1054.000,5.000,0
"04/07/08","17:05:58",17189.000,"cc",28308.248,6.00,6,0.100,8323.000,0.200,2817.000,0.300,2359.000,0.500,2668.000,1.000,1022.000,5.000,0
"04/07/08","17:06:04",17033.000,"cc",28331.295,6.00,6,0.100,8219.000,0.200,2725.000,0.300,2337.000,0.500,2789.000,1.000,963.000,5.000,0
"04/07/08","17:06:10",16521.000,"cc",28394.434,6.00,6,0.100,7916.000,0.200,2656.000,0.300,2310.000,0.500,2679.000,1.000,960.000,5.000,0
"04/07/08","17:06:16",16358.000,"cc",28321.930,6.00,6,0.100,7909.000,0.200,2581.000,0.300,2176.000,0.500,2692.000,1.000,1000.000,5.000,0
"04/07/08","17:06:22",16445.000,"cc",28339.145,6.00,6,0.100,7885.000,0.200,2633.000,0.300,2288.000,0.500,2677.000,1.000,962.000,5.000,0
"04/07/08","17:06:28",16917.000,"cc",28272.484,6.00,6,0.100,8160.000,0.200,2786.000,0.300,2251.000,0.500,2672.000,1.000,1048.000,5.000,0
"04/07/08","17:06:34",17020.000,"cc",28396.012,6.00,6,0.100,8174.000,0.200,2766.000,0.300,2267.000,0.500,2744.000,1.000,1069.000,5.000,0
"04/07/08","17:06:40",16582.000,"cc",28198.223,6.00,6,0.100,8008.000,0.200,2695.000,0.300,2226.000,0.500,2665.000,1.000,988.000,5.000,0
"04/07/08","17:06:46",16580.000,"cc",28373.199,6.00,6,0.100,8009.000,0.200,2754.000,0.300,2172.000,0.500,2651.000,1.000,994.000,5.000,0
"04/07/08","17:06:52",16466.000,"cc",28385.113,6.00,6,0.100,7892.000,0.200,2612.000,0.300,2301.000,0.500,2639.000,1.000,1022.000,5.000,0
"04/07/08","17:06:58",16549.000,"cc",28198.838,6.00,6,0.100,7981.000,0.200,2730.000,0.300,2188.000,0.500,2604.000,1.000,1046.000,5.000,0
"04/07/08","17:07:04",16860.000,"cc",28315.453,6.00,6,0.100,8156.000,0.200,2753.000,0.300,2295.000,0.500,2640.000,1.000,1016.000,5.000,0
"04/07/08","17:07:10",16922.000,"cc",28409.838,6.00,6,0.100,8212.000,0.200,2790.000,0.300,2179.000,0.500,2758.000,1.000,983.000,5.000,0
"04/07/08","17:07:16",17419.000,"cc",28358.926,6.00,6,0.100,8348.000,0.200,2864.000,0.300,2410.000,0.500,2757.000,1.000,1040.000,5.000,0
"04/07/08","17:07:22",17240.000,"cc",28269.731,6.00,6,0.100,8184.000,0.200,2862.000,0.300,2311.000,0.500,2864.000,1.000,1019.000,5.000,0
"04/07/08","17:07:28",17018.000,"cc",28308.375,6.00,6,0.100,8129.000,0.200,2774.000,0.300,2351.000,0.500,2747.000,1.000,1017.000,5.000,0
"04/07/08","17:07:34",16153.000,"cc",28191.322,6.00,6,0.100,8013.000,0.200,2572.000,0.300,2185.000,0.500,2471.000,1.000,912.000,5.000,0
"04/07/08","17:07:40",16716.000,"cc",28312.498,6.00,6,0.100,8134.000,0.200,2703.000,0.300,2252.000,0.500,2603.000,1.000,1024.000,5.000,0
"04/07/08","17:07:46",17036.000,"cc",28289.262,6.00,6,0.100,8133.000,0.200,2769.000,0.300,2429.000,0.500,2674.000,1.000,1031.000,5.000,0
"04/07/08","17:07:52",17374.000,"cc",28314.029,6.00,6,0.100,8257.000,0.200,2812.000,0.300,2429.000,0.500,2784.000,1.000,1092.000,5.000,0
"04/07/08","17:07:58",17229.000,"cc",28151.990,6.00,6,0.100,8281.000,0.200,2862.000,0.300,2325.000,0.500,2730.000,1.000,1031.000,5.000,0
"04/07/08","17:08:04",18035.000,"cc",28252.772,6.00,6,0.100,8622.000,0.200,3027.000,0.300,2502.000,0.500,2850.000,1.000,1034.000,5.000,0
"04/07/08","17:08:10",17588.000,"cc",28346.641,6.00,6,0.100,8404.000,0.200,2943.000,0.300,2375.000,0.500,2824.000,1.000,1042.000,5.000,0
"04/07/08","17:08:16",17356.000,"cc",28348.533,6.00,6,0.100,8263.000,0.200,2917.000,0.300,2388.000,0.500,2772.000,1.000,1016.000,5.000,0
"04/07/08","17:08:22",17348.000,"cc",28326.723,6.00,6,0.100,8302.000,0.200,2854.000,0.300,2386.000,0.500,2752.000,1.000,1054.000,5.000,0
"04/07/08","17:08:28",16766.000,"cc",28443.795,6.00,6,0.100,8169.000,0.200,2652.000,0.300,2333.000,0.500,2657.000,1.000,954.000,5.000,1.000
"04/07/08","17:08:34",16517.000,"cc",28275.180,6.00,6,0.100,8067.000,0.200,2617.000,0.300,2159.000,0.500,2686.000,1.000,988.000,5.000,0
"04/07/08","17:08:40",16436.000,"cc",28311.063,6.00,6,0.100,8025.000,0.200,2585.000,0.300,2279.000,0.500,2559.000,1.000,988.000,5.000,0
"04/07/08","17:08:46",16854.000,"cc",28373.139,6.00,6,0.100,8142.000,0.200,2781.000,0.300,2278.000,0.500,2652.000,1.000,1001.000,5.000,0
"04/07/08","17:08:52",17024.000,"cc",28300.213,6.00,6,0.100,8273.000,0.200,2792.000,0.300,2245.000,0.500,2723.000,1.000,991.000,5.000,0
"04/07/08","17:08:58",17218.000,"cc",28416.641,6.00,6,0.100,8301.000,0.200,2811.000,0.300,2352.000,0.500,2747.000,1.000,1007.000,5.000,0
"04/07/08","17:09:04",18105.000,"cc",28250.252,6.00,6,0.100,8506.000,0.200,3014.000,0.300,2534.000,0.500,2888.000,1.000,1163.000,5.000,0
"04/07/08","17:09:10",17350.000,"cc",28231.162,6.00,6,0.100,8398.000,0.200,2784.000,0.300,2301.000,0.500,2868.000,1.000,999.000,5.000,0
"04/07/08","17:09:16",16689.000,"cc",28359.137,6.00,6,0.100,8058.000,0.200,2748.000,0.300,2236.000,0.500,2600.000,1.000,1047.000,5.000,0
"04/07/08","17:09:22",16541.000,"cc",28464.615,6.00,6,0.100,8087.000,0.200,2640.000,0.300,2193.000,0.500,2596.000,1.000,1025.000,5.000,0
"04/07/08","17:09:28",17147.000,"cc",28274.361,6.00,6,0.100,8240.000,0.200,2767.000,0.300,2373.000,0.500,2738.000,1.000,1029.000,5.000,0
"04/07/08","17:09:34",16888.000,"cc",28307.148,6.00,6,0.100,8152.000,0.200,2734.000,0.300,2313.000,0.500,2698.000,1.000,991.000,5.000,0
"04/07/08","17:09:40",16584.000,"cc",28424.512,6.00,6,0.100,8250.000,0.200,2650.000,0.300,2122.000,0.500,2527.000,1.000,1035.000,5.000,0
"04/07/08","17:09:46",16123.000,"cc",28338.836,6.00,6,0.100,7906.000,0.200,2583.000,0.300,2092.000,0.500,2551.000,1.000,991.000,5.000,0
"04/07/08","17:09:52",16381.000,"cc",28218.111,6.00,6,0.100,7917.000,0.200,2622.000,0.300,2165.000,0.500,2637.000,1.000,1040.000,5.000,0
"04/07/08","17:09:58",16711.000,"cc",28242.779,6.00,6,0.100,8088.000,0.200,2680.000,0.300,2352.000,0.500,2567.000,1.000,1024.000,5.000,0
"04/07/08","17:10:04",17061.000,"cc",28298.453,6.00,6,0.100,8406.000,0.200,2683.000,0.300,2278.000,0.500,2663.000,1.000,1031.000,5.000,0
"04/07/08","17:10:10",18137.000,"cc",28245.682,6.00,6,0.100,8524.000,0.200,3119.000,0.300,2562.000,0.500,2888.000,1.000,1044.000,5.000,0
"04/07/08","17:10:16",17813.000,"cc",28297.969,6.00,6,0.100,8632.000,0.200,2810.000,0.300,2415.000,0.500,2857.000,1.000,1099.000,5.000,0
"04/07/08","17:10:22",17169.000,"cc",28338.428,6.00,6,0.100,8125.000,0.200,2801.000,0.300,2423.000,0.500,2760.000,1.000,1060.000,5.000,0
"04/07/08","17:10:28",16743.000,"cc",28406.715,6.00,6,0.100,8104.000,0.200,2711.000,0.300,2313.000,0.500,2643.000,1.000,972.000,5.000,0
"04/07/08","17:10:34",15967.000,"cc",28426.713,6.00,6,0.100,7738.000,0.200,2576.000,0.300,2112.000,0.500,2514.000,1.000,1027.000,5.000,0
"04/07/08","17:10:40",16796.000,"cc",28361.957,6.00,6,0.100,8154.000,0.200,2730.000,0.300,2186.000,0.500,2703.000,1.000,1023.000,5.000,0
"04/07/08","17:10:46",16676.000,"cc",28202.178,6.00,6,0.100,8054.000,0.200,2651.000,0.300,2234.000,0.500,2742.000,1.000,995.000,5.000,0
"04/07/08","17:10:52",17240.000,"cc",28233.990,6.00,6,0.100,8352.000,0.200,2788.000,0.300,2395.000,0.500,2685.000,1.000,1020.000,5.000,0
"04/07/08","17:10:58",16467.000,"cc",28370.367,6.00,6,0.100,8026.000,0.200,2634.000,0.300,2240.000,0.500,2595.000,1.000,972.000,5.000,0
"04/07/08","17:11:04",16721.000,"cc",28366.658,6.00,6,0.100,8094.000,0.200,2679.000,0.300,2287.000,0.500,2635.000,1.000,1026.000,5.000,0
"04/07/08","17:11:10",16767.000,"cc",28444.393,6.00,6,0.100,8160.000,0.200,2639.000,0.300,2272.000,0.500,2681.000,1.000,1015.000,5.000,0
"04/07/08","17:11:16",17165.000,"cc",28235.869,6.00,6,0.100,8271.000,0.200,2784.000,0.300,2348.000,0.500,2669.000,1.000,1093.000,5.000,0
"04/07/08","17:11:22",16637.000,"cc",28187.182,6.00,6,0.100,8053.000,0.200,2587.000,0.300,2339.000,0.500,2622.000,1.000,1036.000,5.000,0
"04/07/08","17:11:28",16945.000,"cc",28297.943,6.00,6,0.100,8205.000,0.200,2780.000,0.300,2318.000,0.500,2649.000,1.000,993.000,5.000,0
"04/07/08","17:11:34",17232.000,"cc",28299.566,6.00,6,0.100,8524.000,0.200,2730.000,0.300,2312.000,0.500,2673.000,1.000,993.000,5.000,0
"04/07/08","17:11:40",17405.000,"cc",28270.654,6.00,6,0.100,8292.000,0.200,2797.000,0.300,2503.000,0.500,2778.000,1.000,1035.000,5.000,0
"04/07/08","17:11:46",17638.000,"cc",28253.432,6.00,6,0.100,8403.000,0.200,2922.000,0.300,2427.000,0.500,2769.000,1.000,1116.000,5.000,1.000
"04/07/08","17:11:52",17353.000,"cc",28306.609,6.00,6,0.100,8300.000,0.200,2801.000,0.300,2408.000,0.500,2800.000,1.000,1044.000,5.000,0
"04/07/08","17:11:58",16910.000,"cc",28261.713,6.00,6,0.100,8144.000,0.200,2804.000,0.300,2324.000,0.500,2602.000,1.000,1036.000,5.000,0
"04/07/08","17:12:04",17655.000,"cc",28405.281,6.00,6,0.100,8561.000,0.200,2786.000,0.300,2486.000,0.500,2793.000,1.000,1029.000,5.000,0
"04/07/08","17:12:10",16974.000,"cc",28281.377,6.00,6,0.100,8292.000,0.200,2731.000,0.300,2320.000,0.500,2633.000,1.000,997.000,5.000,1.000
"04/07/08","17:12:16",17062.000,"cc",28413.629,6.00,6,0.100,8200.000,0.200,2821.000,0.300,2344.000,0.500,2674.000,1.000,1023.000,5.000,0
"04/07/08","17:12:22",16542.000,"cc",28435.164,6.00,6,0.100,8131.000,0.200,2630.000,0.300,2216.000,0.500,2586.000,1.000,979.000,5.000,0
"04/07/08","17:12:28",16551.000,"cc",28327.711,6.00,6,0.100,8006.000,0.200,2670.000,0.300,2257.000,0.500,2631.000,1.000,987.000,5.000,0
"04/07/08","17:12:34",17001.000,"cc",28309.879,6.00,6,0.100,8189.000,0.200,2751.000,0.300,2201.000,0.500,2798.000,1.000,1062.000,5.000,0
"04/07/08","17:12:40",16972.000,"cc",28370.420,6.00,6,0.100,8083.000,0.200,2695.000,0.300,2403.000,0.500,2746.000,1.000,1045.000,5.000,0
"04/07/08","17:12:46",17389.000,"cc",28214.647,6.00,6,0.100,8297.000,0.200,2909.000,0.300,2353.000,0.500,2808.000,1.000,1022.000,5.000,0
"04/07/08","17:12:52",17576.000,"cc",28300.154,6.00,6,0.100,8390.000,0.200,2900.000,0.300,2336.000,0.500,2893.000,1.000,1057.000,5.000,0
"04/07/08","17:12:58",17826.000,"cc",28198.418,6.00,6,0.100,8557.000,0.200,3031.000,0.300,2425.000,0.500,2799.000,1.000,1014.000,5.000,0
"04/07/08","17:13:04",18133.000,"cc",28399.356,6.00,6,0.100,8591.000,0.200,2928.000,0.300,2538.000,0.500,3017.000,1.000,1059.000,5.000,0
"04/07/08","17:13:10",17676.000,"cc",28183.992,6.00,6,0.100,8372.000,0.200,2951.000,0.300,2440.000,0.500,2856.000,1.000,1057.000,5.000,0
"04/07/08","17:13:16",18212.000,"cc",28155.104,6.00,6,0.100,8803.000,0.200,2961.000,0.300,2544.000,0.500,2793.000,1.000,1111.000,5.000,0
"04/07/08","17:13:22",17654.000,"cc",28444.535,6.00,6,0.100,8422.000,0.200,2958.000,0.300,2486.000,0.500,2787.000,1.000,1001.000,5.000,0
"04/07/08","17:13:28",17386.000,"cc",28243.895,6.00,6,0.100,8397.000,0.200,2820.000,0.300,2370.000,0.500,2724.000,1.000,1072.000,5.000,3.000
"04/07/08","17:13:34",18252.000,"cc",28230.984,6.00,6,0.100,8549.000,0.200,3032.000,0.300,2618.000,0.500,2967.000,1.000,1086.000,5.000,0
"04/07/08","17:13:40",19801.000,"cc",28336.178,6.00,6,0.100,9444.000,0.200,3277.000,0.300,2771.000,0.500,3141.000,1.000,1168.000,5.000,0
"04/07/08","17:13:46",19705.000,"cc",28410.596,6.00,6,0.100,9484.000,0.200,3256.000,0.300,2728.000,0.500,3091.000,1.000,1146.000,5.000,0
"04/07/08","17:13:52",19030.000,"cc",28303.113,6.00,6,0.100,9192.000,0.200,3134.000,0.300,2641.000,0.500,2944.000,1.000,1119.000,5.000,0
"04/07/08","17:13:58",21236.000,"cc",28262.820,6.00,6,0.100,10124.000,0.200,3733.000,0.300,2889.000,0.500,3227.000,1.000,1263.000,5.000,0
"04/07/08","17:14:04",17559.000,"cc",28434.117,6.00,6,0.100,8458.000,0.200,2979.000,0.300,2396.000,0.500,2753.000,1.000,973.000,5.000,0
"04/07/08","17:14:10",17359.000,"cc",28270.951,6.00,6,0.100,8328.000,0.200,2802.000,0.300,2428.000,0.500,2740.000,1.000,1061.000,5.000,0
"04/07/08","17:14:16",17805.000,"cc",28376.465,6.00,6,0.100,8502.000,0.200,2909.000,0.300,2484.000,0.500,2807.000,1.000,1103.000,5.000,0
"04/07/08","17:14:22",17561.000,"cc",28357.533,6.00,6,0.100,8504.000,0.200,2816.000,0.300,2399.000,0.500,2771.000,1.000,1071.000,5.000,0
"04/07/08","17:14:28",17012.000,"cc",28246.387,6.00,6,0.100,8168.000,0.200,2811.000,0.300,2239.000,0.500,2794.000,1.000,1000.000,5.000,0
"04/07/08","17:14:34",17913.000,"cc",28277.332,6.00,6,0.100,8580.000,0.200,2846.000,0.300,2499.000,0.500,2881.000,1.000,1107.000,5.000,0
"04/07/08","17:14:40",17901.000,"cc",28274.086,6.00,6,0.100,8645.000,0.200,2951.000,0.300,2344.000,0.500,2911.000,1.000,1050.000,5.000,0
"04/07/08","17:14:46",17720.000,"cc",28333.734,6.00,6,0.100,8466.000,0.200,2989.000,0.300,2383.000,0.500,2834.000,1.000,1048.000,5.000,0
"04/07/08","17:14:52",16922.000,"cc",28319.428,6.00,6,0.100,8036.000,0.200,2751.000,0.300,2238.000,0.500,2772.000,1.000,1125.000,5.000,0
"04/07/08","17:14:58",18474.000,"cc",28318.119,6.00,6,0.100,8848.000,0.200,3022.000,0.300,2560.000,0.500,2930.000,1.000,1114.000,5.000,0
"04/07/08","17:15:04",19382.000,"cc",28323.916,6.00,6,0.100,9130.000,0.200,3308.000,0.300,2745.000,0.500,3007.000,1.000,1192.000,5.000,0
"04/07/08","17:15:10",19002.000,"cc",28307.223,6.00,6,0.100,9060.000,0.200,3177.000,0.300,2598.000,0.500,3028.000,1.000,1139.000,5.000,0
"04/07/08","17:15:16",17804.000,"cc",28343.231,6.00,6,0.100,8512.000,0.200,2916.000,0.300,2483.000,0.500,2759.000,1.000,1134.000,5.000,0
"04/07/08","17:15:22",17094.000,"cc",28356.080,6.00,6,0.100,8241.000,0.200,2798.000,0.300,2292.000,0.500,2716.000,1.000,1047.000,5.000,0
"04/07/08","17:15:28",16771.000,"cc",28293.277,6.00,6,0.100,8362.000,0.200,2634.000,0.300,2166.000,0.500,2563.000,1.000,1046.000,5.000,0
"04/07/08","17:15:34",16556.000,"cc",28362.686,6.00,6,0.100,8103.000,0.200,2693.000,0.300,2191.000,0.500,2558.000,1.000,1011.000,5.000,0
"04/07/08","17:15:40",17085.000,"cc",28304.547,6.00,6,0.100,8300.000,0.200,2684.000,0.300,2266.000,0.500,2776.000,1.000,1059.000,5.000,0
"04/07/08","17:15:46",16680.000,"cc",28289.721,6.00,6,0.100,8155.000,0.200,2654.000,0.300,2215.000,0.500,2632.000,1.000,1024.000,5.000,0
"04/07/08","17:15:52",17002.000,"cc",28420.846,6.00,6,0.100,8300.000,0.200,2713.000,0.300,2286.000,0.500,2701.000,1.000,1002.000,5.000,0
"04/07/08","17:15:58",16843.000,"cc",28292.305,6.00,6,0.100,8256.000,0.200,2603.000,0.300,2275.000,0.500,2690.000,1.000,1019.000,5.000,0
"04/07/08","17:16:04",16982.000,"cc",28348.867,6.00,6,0.100,8208.000,0.200,2743.000,0.300,2369.000,0.500,2699.000,1.000,963.000,5.000,0
"04/07/08","17:16:10",16698.000,"cc",28188.941,6.00,6,0.100,8050.000,0.200,2683.000,0.300,2253.000,0.500,2669.000,1.000,1043.000,5.000,0
"04/07/08","17:16:16",17155.000,"cc",28310.488,6.00,6,0.100,8330.000,0.200,2741.000,0.300,2404.000,0.500,2602.000,1.000,1078.000,5.000,0
"04/07/08","17:16:22",17276.000,"cc",28240.938,6.00,6,0.100,8179.000,0.200,2734.000,0.300,2525.000,0.500,2763.000,1.000,1075.000,5.000,0